ALK364 VCBI-WIII

Flight info

Callsign ALK364
Flight time N/A
Altitude 39000
Route DUDAL DCT GODAV M766 PAGAI G461 BIDAK
Aircraft A20N/M-SDE2E3FGHIRWXY/LB1

Departure

Time 2026-04-26 11:09
Airport Bandaranaike International Colombo Airport (VCBI)

Arrival

Time N/A
Airport Soekarno-Hatta International Airport (WIII)
Time Latitude Longitude Altitude Speed Heading
2026-04-26 10:55 7.17615 79.88567 30 ft 0 kts 217°
2026-04-26 10:59 7.17626 79.88576 30 ft 3 kts 217°
2026-04-26 10:59 7.17641 79.88587 30 ft 3 kts 217°
2026-04-26 10:59 7.17656 79.88599 30 ft 3 kts 217°
2026-04-26 10:59 7.17670 79.88610 30 ft 3 kts 217°
2026-04-26 11:00 7.17684 79.88620 30 ft 2 kts 221°
2026-04-26 11:00 7.17695 79.88636 30 ft 3 kts 261°
2026-04-26 11:00 7.17693 79.88654 30 ft 3 kts 300°
2026-04-26 11:00 7.17691 79.88658 30 ft 0 kts 309°
2026-04-26 11:02 7.17692 79.88657 30 ft 1 kts 309°
2026-04-26 11:03 7.17703 79.88642 30 ft 3 kts 308°
2026-04-26 11:03 7.17718 79.88622 30 ft 5 kts 306°
2026-04-26 11:03 7.17748 79.88581 30 ft 9 kts 307°
2026-04-26 11:03 7.17786 79.88532 30 ft 9 kts 307°
2026-04-26 11:04 7.17821 79.88484 30 ft 8 kts 307°
2026-04-26 11:04 7.17861 79.88440 30 ft 9 kts 329°
2026-04-26 11:04 7.17922 79.88454 30 ft 11 kts 34°
2026-04-26 11:04 7.17989 79.88505 30 ft 13 kts 37°
2026-04-26 11:05 7.18071 79.88568 30 ft 16 kts 37°
2026-04-26 11:05 7.18169 79.88638 30 ft 18 kts 40°
2026-04-26 11:05 7.18267 79.88713 30 ft 17 kts 40°
2026-04-26 11:05 7.18361 79.88789 30 ft 17 kts 37°
2026-04-26 11:06 7.18453 79.88860 31 ft 16 kts 38°
2026-04-26 11:06 7.18543 79.88927 31 ft 16 kts 37°
2026-04-26 11:06 7.18629 79.88994 31 ft 15 kts 37°
2026-04-26 11:06 7.18712 79.89058 31 ft 15 kts 38°
2026-04-26 11:07 7.18793 79.89120 31 ft 15 kts 37°
2026-04-26 11:07 7.18881 79.89186 30 ft 17 kts 37°
2026-04-26 11:07 7.18983 79.89263 30 ft 19 kts 37°
2026-04-26 11:07 7.19090 79.89347 30 ft 19 kts 37°
2026-04-26 11:08 7.19187 79.89404 30 ft 13 kts 359°
2026-04-26 11:08 7.19250 79.89354 30 ft 12 kts 305°
2026-04-26 11:08 7.19290 79.89287 30 ft 10 kts 263°
2026-04-26 11:08 7.19165 79.89175 31 ft 51 kts 216°
2026-04-26 11:09 7.18718 79.88834 32 ft 109 kts 217°
2026-04-26 11:09 7.17977 79.88267 33 ft 156 kts 217°
2026-04-26 11:09 7.17073 79.87591 354 ft 162 kts 223°
2026-04-26 11:09 7.16329 79.86774 824 ft 157 kts 241°
2026-04-26 11:10 7.15901 79.85767 1239 ft 155 kts 270°
2026-04-26 11:10 7.16122 79.84716 1688 ft 160 kts 281°
2026-04-26 11:10 7.15907 79.83532 1895 ft 195 kts 237°
2026-04-26 11:10 7.14713 79.82699 2099 ft 233 kts 194°
2026-04-26 11:11 7.13035 79.82869 2424 ft 258 kts 154°
2026-04-26 11:11 7.11658 79.84055 3041 ft 265 kts 129°
2026-04-26 11:11 7.10570 79.85554 3801 ft 266 kts 117°
2026-04-26 11:11 7.09812 79.87249 4583 ft 266 kts 110°
2026-04-26 11:12 7.09236 79.89022 5342 ft 267 kts 104°
2026-04-26 11:12 7.08784 79.90837 6117 ft 268 kts 101°